Weather History for Mustang Island A85A, TX

Change the Weather History Date:

Thursday, February 14, 2013

  Actual Average Record
Temperature  
Mean Temperature 62 °F -  
Max Temperature 66 °F - - ()
Min Temperature 59 °F - - ()
Degree Days  
Heating Degree Days 2    
Growing Degree Days 12 (Base 50)    
Moisture  
Dew Point 45 °F    
Average Humidity 53    
Maximum Humidity 63    
Minimum Humidity 37    
Precipitation  
Precipitation 0.00 in - - ()
Sea Level Pressure  
Sea Level Pressure 30.09 in    
Wind  
Wind Speed 9 mph ()    
Max Wind Speed 15 mph    
Max Gust Speed 20 mph    
Visibility 9.6 miles    
Events      
T = Trace of Precipitation, MM = Missing Value Source: Averaged Metar Reports

Daily Weather History Graph

Daily Weather History Graph

Search for Another Location

Airport:

Trip Planner

Search our weather history database for the weather conditions in past years. The results will help you decide how hot, cold, wet, or windy it might be!

Date:

Astronomy

Feb. 14, 2013 Rise Set
Actual Time 7:02 AM CST 6:15 PM CST
Civil Twilight 6:38 AM CST 6:39 PM CST
Nautical Twilight 6:11 AM CST 7:07 PM CST
Astronomical Twilight 5:43 AM CST 7:34 PM CST
Moon 9:34 AM CST (2/14) 10:47 PM CST (2/14)
Length of Visible Light 12h 00m
Length of Day
11h 13m
Waxing Crescent, 22% of the Moon is Illuminated
Feb 14
Waxing Crescent
Feb 17
First Quarter
Feb 25
Full
Mar 4
Last Quarter
Mar 11
New

Hourly Weather History & Observations

Time (CST) Temp. Dew Point Humidity Pressure Visibility Wind Dir Wind Speed Gust Speed Precip Events Conditions
12:15 AM 60.8 °F 44.6 °F 55% 30.09 in 10.0 mi NNE 11.5 mph 17.3 mph N/A   Clear
12:35 AM 60.8 °F 42.8 °F 52% 30.10 in 10.0 mi NNE 15.0 mph - N/A   Clear
12:55 AM 60.8 °F 42.8 °F 52% 30.09 in 10.0 mi NE 8.1 mph - N/A   Clear
1:15 AM 60.8 °F 42.8 °F 52% 30.10 in 10.0 mi NNE 10.4 mph 19.6 mph N/A   Clear
1:35 AM 60.8 °F 44.6 °F 55% 30.09 in 10.0 mi NNE 8.1 mph 18.4 mph N/A   Clear
1:55 AM 60.8 °F 44.6 °F 55% 30.09 in 10.0 mi NNE 10.4 mph - N/A   Clear
2:15 AM 59.0 °F 44.6 °F 59% 30.09 in 10.0 mi NNE 13.8 mph - N/A   Clear
2:35 AM 59.0 °F 44.6 °F 59% 30.08 in 10.0 mi North 11.5 mph - N/A   Clear
2:55 AM 60.8 °F 44.6 °F 55% 30.08 in 10.0 mi NNE 11.5 mph - N/A   Clear
3:15 AM 60.8 °F 44.6 °F 55% 30.07 in 10.0 mi NNE 10.4 mph - N/A   Clear
3:35 AM 60.8 °F 44.6 °F 55% 30.07 in 10.0 mi NNE 11.5 mph - N/A   Clear
3:55 AM 59.0 °F 44.6 °F 59% 30.07 in 10.0 mi Variable 4.6 mph 11.5 mph N/A   Clear
4:15 AM 60.8 °F 44.6 °F 55% 30.07 in 10.0 mi NE 8.1 mph - N/A   Clear
4:35 AM 60.8 °F 44.6 °F 55% 30.06 in 10.0 mi NNE 12.7 mph - N/A   Clear
4:55 AM 60.8 °F 44.6 °F 55% 30.07 in 10.0 mi Variable 4.6 mph 11.5 mph N/A   Clear
5:15 AM 59.0 °F 46.4 °F 63% 30.08 in 10.0 mi Variable 6.9 mph - N/A   Clear
5:35 AM 59.0 °F 46.4 °F 63% 30.08 in 10.0 mi NNE 8.1 mph 13.8 mph N/A   Clear
5:55 AM 60.8 °F 46.4 °F 59% 30.08 in 10.0 mi NE 8.1 mph 13.8 mph N/A   Clear
6:15 AM 60.8 °F 48.2 °F 63% 30.09 in 10.0 mi NNE 10.4 mph - N/A   Clear
6:35 AM 60.8 °F 48.2 °F 63% 30.09 in 10.0 mi NNE 11.5 mph - N/A   Clear
6:55 AM 60.8 °F 48.2 °F 63% 30.09 in 10.0 mi NE 8.1 mph 18.4 mph N/A   Clear
7:15 AM 60.8 °F 48.2 °F 63% 30.09 in 10.0 mi NE 8.1 mph - N/A   Clear
7:35 AM 60.8 °F 48.2 °F 63% 30.10 in 10.0 mi NNE 8.1 mph 13.8 mph N/A   Clear
7:55 AM 60.8 °F 48.2 °F 63% 30.11 in 10.0 mi NNE 8.1 mph - N/A   Clear
8:15 AM 62.6 °F 48.2 °F 59% 30.12 in 10.0 mi NNE 10.4 mph - N/A   Clear
8:35 AM 60.8 °F 48.2 °F 63% 30.13 in 10.0 mi NNE 8.1 mph 17.3 mph N/A   Clear
8:55 AM 60.8 °F 48.2 °F 63% 30.13 in 10.0 mi NNE 12.7 mph - N/A   Clear
9:15 AM 62.6 °F 48.2 °F 59% 30.14 in 10.0 mi NNE 10.4 mph - N/A   Clear
9:35 AM 62.6 °F 48.2 °F 59% 30.14 in 10.0 mi NNE 12.7 mph 19.6 mph N/A   Clear
9:55 AM 64.4 °F 48.2 °F 56% 30.14 in 10.0 mi NE 9.2 mph 18.4 mph N/A   Clear
10:15 AM 64.4 °F 48.2 °F 56% 30.15 in 10.0 mi NE 10.4 mph 18.4 mph N/A   Clear
10:35 AM 64.4 °F 48.2 °F 56% 30.14 in 10.0 mi NNE 13.8 mph - N/A   Clear
10:55 AM 64.4 °F 46.4 °F 52% 30.15 in 10.0 mi NNE 11.5 mph 18.4 mph N/A   Clear
11:15 AM 64.4 °F 46.4 °F 52% 30.15 in 10.0 mi NE 9.2 mph 15.0 mph N/A   Clear
11:35 AM 64.4 °F 44.6 °F 49% 30.14 in 2.0 mi NE 9.2 mph - N/A   Haze
11:55 AM 66.2 °F 46.4 °F 49% 30.13 in 10.0 mi Variable 6.9 mph 15.0 mph N/A   Clear
12:15 PM 64.4 °F 42.8 °F 45% 30.13 in 10.0 mi NNE 8.1 mph - N/A   Clear
12:35 PM 64.4 °F 42.8 °F 45% 30.13 in 10.0 mi ENE 5.8 mph - N/A   Clear
12:55 PM 64.4 °F 42.8 °F 45% 30.12 in 9.0 mi Variable 4.6 mph 11.5 mph N/A   Clear
1:15 PM 64.4 °F 42.8 °F 45% 30.11 in 10.0 mi NNE 8.1 mph - N/A   Clear
1:35 PM 64.4 °F 39.2 °F 40% 30.10 in 4.0 mi Calm Calm - N/A   Haze
1:55 PM 62.6 °F 42.8 °F 48% 30.09 in 10.0 mi Variable 4.6 mph - N/A   Clear
2:15 PM 64.4 °F 42.8 °F 45% 30.09 in 10.0 mi Variable 5.8 mph - N/A   Clear
2:35 PM 64.4 °F 41.0 °F 42% 30.08 in 10.0 mi NE 6.9 mph - N/A   Clear
2:55 PM 66.2 °F 39.2 °F 37% 30.07 in 10.0 mi Variable 5.8 mph 11.5 mph N/A   Clear
3:15 PM 64.4 °F 41.0 °F 42% 30.06 in 2.0 mi Variable 5.8 mph - N/A   Haze
3:35 PM 66.2 °F 42.8 °F 43% 30.06 in 9.0 mi Variable 6.9 mph - N/A   Clear
3:55 PM 64.4 °F 39.2 °F 40% 30.06 in 10.0 mi Variable 4.6 mph 13.8 mph N/A   Clear
4:15 PM 64.4 °F 41.0 °F 42% 30.07 in 10.0 mi Variable 6.9 mph 12.7 mph N/A   Clear
4:35 PM 64.4 °F 42.8 °F 45% 30.07 in 10.0 mi Variable 5.8 mph - N/A   Clear
4:55 PM 64.4 °F 42.8 °F 45% 30.07 in 10.0 mi East 8.1 mph - N/A   Clear
5:15 PM 64.4 °F 41.0 °F 42% 30.07 in 8.0 mi Variable 5.8 mph - N/A   Clear
5:35 PM 64.4 °F 42.8 °F 45% 30.07 in 9.0 mi ENE 8.1 mph - N/A   Clear
5:55 PM 64.4 °F 42.8 °F 45% 30.06 in 9.0 mi Variable 6.9 mph - N/A   Clear
6:15 PM 62.6 °F 42.8 °F 48% 30.06 in 9.0 mi Variable 5.8 mph 12.7 mph N/A   Clear
6:35 PM 62.6 °F 42.8 °F 48% 30.06 in 10.0 mi East 5.8 mph - N/A   Clear
6:55 PM 60.8 °F 41.0 °F 48% 30.07 in 10.0 mi Variable 6.9 mph - N/A   Unknown
7:15 PM 62.6 °F 42.8 °F 48% 30.07 in 10.0 mi East 8.1 mph - N/A   Unknown
7:35 PM 60.8 °F 42.8 °F 52% 30.07 in 10.0 mi East 9.2 mph - N/A   Unknown
7:55 PM - - N/A% - - North - - N/A   Unknown
8:15 PM 60.8 °F 42.8 °F 52% 30.06 in 10.0 mi East 10.4 mph - N/A   Unknown
8:35 PM 60.8 °F 42.8 °F 52% 30.07 in 10.0 mi East 8.1 mph 16.1 mph N/A   Unknown
8:55 PM 60.8 °F 44.6 °F 55% 30.08 in 10.0 mi ESE 11.5 mph 17.3 mph N/A   Unknown
9:15 PM 60.8 °F 44.6 °F 55% 30.08 in 10.0 mi East 12.7 mph 18.4 mph N/A   Unknown
9:35 PM 62.6 °F 44.6 °F 52% 30.08 in 10.0 mi East 8.1 mph 16.1 mph N/A   Unknown
9:55 PM 60.8 °F 44.6 °F 55% 30.08 in 10.0 mi East 9.2 mph 17.3 mph N/A   Unknown
10:15 PM 60.8 °F 44.6 °F 55% 30.09 in 10.0 mi East 9.2 mph - N/A   Unknown
10:35 PM 60.8 °F 44.6 °F 55% 30.09 in 10.0 mi ESE 12.7 mph - N/A   Unknown
10:55 PM 60.8 °F 46.4 °F 59% 30.09 in 10.0 mi East 9.2 mph 18.4 mph N/A   Unknown
11:15 PM 62.6 °F 46.4 °F 55% 30.09 in 10.0 mi ESE 11.5 mph - N/A   Clear
11:35 PM 62.6 °F 48.2 °F 59% 30.09 in 10.0 mi East 8.1 mph 16.1 mph N/A   Clear
11:55 PM 62.6 °F 46.4 °F 55% 30.08 in 10.0 mi East 10.4 mph 17.3 mph N/A   Unknown